Find Starlink 11744

NORAD ID: 64380 Int'l Des: 2025-127 Owner: SPXS Country: US Constellation: starlink operational
別名: STARLINK-11744 [DTC] celestrak
LEOCIRCULAR

現在のビュー

3D地球を読み込み中...

About Starlink 11744

Starlink 11744 (NORAD 64380) is a starlink constellation satellite (v2 mini d2c) launched Jun 13, 2025 by SPXS of US. It operates in LEO, CIRCULAR orbit with a mass of 960.00 kg.

次回通過

Passes for default location (London). Set your location on the main map for personalized predictions.

高度履歴

Loading altitude history...

軌道要素

1 64380U 25127L 26237.13928488 .00236464 00000-0 17909-2 0 9994
2 64380 43.0013 149.3088 0001303 298.4987 61.5749 15.70886651 69993
Epoch: Aug 25, 2026 • Age: 10 hours

現在のステータス

高度 365.9 km
遠地点 / 近地点 N/A
速度 7.69 km/s
衛星直下点 -36.49°S, 157.76°W
打ち上げ日 Jun 13, 2025
運用期間 1.1 years
タイプ internet

技術仕様

分類 Payload
質量 960.00 kg
乾燥質量 910.00 kg
総質量 960.00 kg
長さ 0.30 m
直径 4.10 m
スパン 29.00 m
形状 Box + pan
製造者 SPXS
バスタイプ Starlink V2MD
フェーズステータス In Orbit
所有者/国 SPXS/US

Most Searched